Time,TemperatureF,DewpointF,PressureIn,WindDirection,WindDirectionDegrees,WindSpeedMPH,WindSpeedGustMPH,Humidity,HourlyPrecipIn,Conditions,Clouds,dailyrainin,SoftwareType,DateUTC
2013-01-05 00:04:00,30.5,20.0,29.95,ESE,114,0.0,-999.0,65,-99.99,,,0.00,weatherlink.com 1.10,2013-01-05 05:04:00,
2013-01-05 00:19:00,30.3,20.0,29.96,South,180,0.0,-999.0,65,-99.99,,,0.00,weatherlink.com 1.10,2013-01-05 05:19:00,
2013-01-05 00:34:00,30.2,20.0,29.96,SE,136,0.0,-999.0,65,-99.99,,,0.00,weatherlink.com 1.10,2013-01-05 05:34:00,
2013-01-05 00:49:00,30.1,20.0,29.96,SSW,197,0.0,-999.0,66,-99.99,,,0.00,weatherlink.com 1.10,2013-01-05 05:49:00,
2013-01-05 01:04:00,29.9,20.0,29.97,South,173,0.0,-999.0,66,-99.99,,,0.00,weatherlink.com 1.10,2013-01-05 06:04:00,
2013-01-05 01:19:00,29.8,20.0,29.97,ESE,109,1.0,-999.0,66,-99.99,,,0.00,weatherlink.com 1.10,2013-01-05 06:19:00,
2013-01-05 01:34:00,29.7,20.0,29.98,SSE,165,0.0,-999.0,66,-99.99,,,0.00,weatherlink.com 1.10,2013-01-05 06:34:00,
2013-01-05 01:49:00,29.2,19.0,29.98,East,86,0.0,-999.0,67,-99.99,,,0.00,weatherlink.com 1.10,2013-01-05 06:49:00,
2013-01-05 02:04:00,28.7,20.0,29.98,North,5,0.0,-999.0,69,-99.99,,,0.00,weatherlink.com 1.10,2013-01-05 07:04:00,
2013-01-05 02:19:00,28.1,19.0,29.99,NNE,27,0.0,-999.0,70,-99.99,,,0.00,weatherlink.com 1.10,2013-01-05 07:19:00,
2013-01-05 02:34:00,28.1,20.0,30.00,SE,138,0.0,-999.0,71,-99.99,,,0.00,weatherlink.com 1.10,2013-01-05 07:34:00,
2013-01-05 02:49:00,28.3,20.0,30.00,SE,128,0.0,-999.0,72,-99.99,,,0.00,weatherlink.com 1.10,2013-01-05 07:49:00,
2013-01-05 03:04:00,28.1,20.0,30.01,SE,128,0.0,-999.0,73,-99.99,,,0.00,weatherlink.com 1.10,2013-01-05 08:04:00,
2013-01-05 03:19:00,28.2,21.0,30.01,SE,128,0.0,-999.0,74,-99.99,,,0.00,weatherlink.com 1.10,2013-01-05 08:19:00,
2013-01-05 03:34:00,28.6,21.0,30.01,SE,128,0.0,-999.0,74,-99.99,,,0.00,weatherlink.com 1.10,2013-01-05 08:34:00,
2013-01-05 03:49:00,28.8,22.0,30.02,East,82,0.0,-999.0,74,-99.99,,,0.00,weatherlink.com 1.10,2013-01-05 08:49:00,
2013-01-05 04:04:00,29.0,22.0,30.02,East,83,0.0,-999.0,74,-99.99,,,0.00,weatherlink.com 1.10,2013-01-05 09:04:00,
2013-01-05 04:19:00,29.0,22.0,30.02,East,83,0.0,-999.0,74,-99.99,,,0.00,weatherlink.com 1.10,2013-01-05 09:19:00,
2013-01-05 04:34:00,29.2,22.0,30.02,SE,126,0.0,-999.0,73,-99.99,,,0.00,weatherlink.com 1.10,2013-01-05 09:34:00,
2013-01-05 04:49:00,28.9,22.0,30.03,SE,126,0.0,-999.0,74,-99.99,,,0.00,weatherlink.com 1.10,2013-01-05 09:49:00,
2013-01-05 05:19:00,28.4,22.0,30.04,ESE,122,0.0,-999.0,76,-99.99,,,0.00,weatherlink.com 1.10,2013-01-05 10:19:00,
2013-01-05 05:34:00,28.1,21.0,30.06,ESE,122,0.0,-999.0,76,-99.99,,,0.00,weatherlink.com 1.10,2013-01-05 10:34:00,
2013-01-05 05:49:00,28.2,22.0,30.06,ESE,122,0.0,-999.0,77,-99.99,,,0.00,weatherlink.com 1.10,2013-01-05 10:49:00,
2013-01-05 06:04:00,28.0,22.0,30.06,ESE,122,0.0,-999.0,77,-99.99,,,0.00,weatherlink.com 1.10,2013-01-05 11:04:00,
2013-01-05 06:19:00,27.8,22.0,30.08,ESE,122,0.0,-999.0,78,-99.99,,,0.00,weatherlink.com 1.10,2013-01-05 11:19:00,
2013-01-05 06:34:00,27.9,22.0,30.10,ESE,122,0.0,-999.0,78,-99.99,,,0.00,weatherlink.com 1.10,2013-01-05 11:34:00,
2013-01-05 06:49:00,28.1,22.0,30.11,ESE,123,0.0,-999.0,78,-99.99,,,0.00,weatherlink.com 1.10,2013-01-05 11:49:00,
2013-01-05 07:04:00,28.3,22.0,30.11,ESE,123,0.0,-999.0,78,-99.99,,,0.00,weatherlink.com 1.10,2013-01-05 12:04:00,
2013-01-05 07:19:00,28.7,22.0,30.12,SSE,165,1.0,-999.0,77,-99.99,,,0.00,weatherlink.com 1.10,2013-01-05 12:19:00,
2013-01-05 07:34:00,28.7,22.0,30.13,SSE,165,0.0,-999.0,77,-99.99,,,0.00,weatherlink.com 1.10,2013-01-05 12:34:00,
2013-01-05 07:49:00,28.7,22.0,30.13,NNW,329,0.0,-999.0,77,-99.99,,,0.00,weatherlink.com 1.10,2013-01-05 12:49:00,
2013-01-05 08:04:00,28.6,22.0,30.15,NNW,329,0.0,-999.0,77,-99.99,,,0.00,weatherlink.com 1.10,2013-01-05 13:04:00,
2013-01-05 08:19:00,28.7,23.0,30.16,ENE,63,0.0,-999.0,78,-99.99,,,0.00,weatherlink.com 1.10,2013-01-05 13:19:00,
2013-01-05 08:34:00,29.8,23.0,30.17,East,96,0.0,-999.0,77,-99.99,,,0.00,weatherlink.com 1.10,2013-01-05 13:34:00,
2013-01-05 08:49:00,30.9,24.0,30.17,SSE,163,1.0,-999.0,75,-99.99,,,0.00,weatherlink.com 1.10,2013-01-05 13:49:00,
2013-01-05 09:04:00,32.0,24.0,30.17,SE,130,0.0,-999.0,71,-99.99,,,0.00,weatherlink.com 1.10,2013-01-05 14:04:00,
2013-01-05 09:19:00,33.8,24.0,30.18,SSW,192,0.0,-999.0,67,-99.99,,,0.00,weatherlink.com 1.10,2013-01-05 14:19:00,
2013-01-05 09:34:00,35.1,24.0,30.19,WSW,252,1.0,-999.0,64,-99.99,,,0.00,weatherlink.com 1.10,2013-01-05 14:34:00,
2013-01-05 09:49:00,35.9,24.0,30.20,ESE,113,1.0,-999.0,63,-99.99,,,0.00,weatherlink.com 1.10,2013-01-05 14:49:00,
2013-01-05 10:04:00,36.3,24.0,30.21,SW,234,2.0,-999.0,62,-99.99,,,0.00,weatherlink.com 1.10,2013-01-05 15:04:00,
2013-01-05 10:19:00,37.1,25.0,30.21,WSW,243,0.0,-999.0,61,-99.99,,,0.00,weatherlink.com 1.10,2013-01-05 15:19:00,
2013-01-05 10:34:00,37.7,25.0,30.21,SW,232,7.0,-999.0,60,-99.99,,,0.00,weatherlink.com 1.10,2013-01-05 15:34:00,
2013-01-05 10:49:00,38.0,25.0,30.22,SE,140,6.0,-999.0,60,-99.99,,,0.00,weatherlink.com 1.10,2013-01-05 15:49:00,
2013-01-05 11:04:00,38.3,25.0,30.22,WSW,251,2.0,-999.0,60,-99.99,,,0.00,weatherlink.com 1.10,2013-01-05 16:04:00,
2013-01-05 11:19:00,38.8,26.0,30.22,WNW,294,5.0,-999.0,60,-99.99,,,0.00,weatherlink.com 1.10,2013-01-05 16:19:00,
2013-01-05 11:34:00,38.9,25.0,30.23,WSW,248,4.0,-999.0,59,-99.99,,,0.00,weatherlink.com 1.10,2013-01-05 16:34:00,
2013-01-05 11:49:00,38.7,24.0,30.22,SSW,211,1.0,-999.0,57,-99.99,,,0.01,weatherlink.com 1.10,2013-01-05 16:49:00,
2013-01-05 12:04:00,38.7,25.0,30.19,North,10,1.0,-999.0,59,-99.99,,,0.01,weatherlink.com 1.10,2013-01-05 17:04:00,
2013-01-05 12:19:00,38.8,25.0,30.19,SW,226,7.0,-999.0,57,-99.99,,,0.01,weatherlink.com 1.10,2013-01-05 17:19:00,
2013-01-05 12:34:00,39.1,25.0,30.20,NE,49,1.0,-999.0,58,-99.99,,,0.02,weatherlink.com 1.10,2013-01-05 17:34:00,
2013-01-05 12:49:00,39.3,25.0,30.20,SE,126,2.0,-999.0,57,-99.99,,,0.02,weatherlink.com 1.10,2013-01-05 17:49:00,
2013-01-05 13:04:00,39.1,25.0,30.19,SSW,194,3.0,-999.0,57,-99.99,,,0.02,weatherlink.com 1.10,2013-01-05 18:04:00,
2013-01-05 13:19:00,38.7,24.0,30.18,SSE,166,2.0,-999.0,56,-99.99,,,0.02,weatherlink.com 1.10,2013-01-05 18:19:00,
2013-01-05 13:34:00,38.4,24.0,30.18,SW,232,0.0,-999.0,57,-99.99,,,0.02,weatherlink.com 1.10,2013-01-05 18:34:00,
2013-01-05 13:49:00,38.5,24.0,30.18,West,269,1.0,-999.0,56,-99.99,,,0.02,weatherlink.com 1.10,2013-01-05 18:49:00,
2013-01-05 14:04:00,38.7,24.0,30.18,West,271,1.0,-999.0,55,-99.99,,,0.02,weatherlink.com 1.10,2013-01-05 19:04:00,
2013-01-05 14:19:00,38.8,24.0,30.19,WNW,286,5.0,-999.0,55,-99.99,,,0.03,weatherlink.com 1.10,2013-01-05 19:19:00,
2013-01-05 14:34:00,38.8,24.0,30.21,WNW,300,0.0,-999.0,56,-99.99,,,0.03,weatherlink.com 1.10,2013-01-05 19:34:00,
2013-01-05 14:49:00,38.8,23.0,30.21,South,184,1.0,-999.0,54,-99.99,,,0.03,weatherlink.com 1.10,2013-01-05 19:49:00,
2013-01-05 15:04:00,38.6,24.0,30.21,WSW,241,1.0,-999.0,55,-99.99,,,0.03,weatherlink.com 1.10,2013-01-05 20:04:00,
2013-01-05 15:19:00,38.4,24.0,30.21,SSE,166,1.0,-999.0,56,-99.99,,,0.03,weatherlink.com 1.10,2013-01-05 20:19:00,
2013-01-05 15:34:00,38.0,23.0,30.21,South,184,0.0,-999.0,56,-99.99,,,0.03,weatherlink.com 1.10,2013-01-05 20:34:00,
2013-01-05 15:49:00,37.4,23.0,30.22,WNW,287,1.0,-999.0,57,-99.99,,,0.03,weatherlink.com 1.10,2013-01-05 20:49:00,
2013-01-05 16:04:00,36.9,23.0,30.21,South,173,0.0,-999.0,58,-99.99,,,0.03,weatherlink.com 1.10,2013-01-05 21:04:00,
2013-01-05 16:19:00,36.0,23.0,30.21,South,173,0.0,-999.0,60,-99.99,,,0.03,weatherlink.com 1.10,2013-01-05 21:19:00,
2013-01-05 16:34:00,34.9,23.0,30.22,South,173,0.0,-999.0,62,-99.99,,,0.03,weatherlink.com 1.10,2013-01-05 21:34:00,
2013-01-05 16:49:00,33.9,23.0,30.22,South,173,1.0,-999.0,65,-99.99,,,0.03,weatherlink.com 1.10,2013-01-05 21:49:00,
2013-01-05 17:04:00,32.6,23.0,30.22,South,173,0.0,-999.0,67,-99.99,,,0.03,weatherlink.com 1.10,2013-01-05 22:04:00,
2013-01-05 17:19:00,31.3,22.0,30.23,SE,139,0.0,-999.0,69,-99.99,,,0.03,weatherlink.com 1.10,2013-01-05 22:19:00,
2013-01-05 17:34:00,30.3,22.0,30.24,South,173,0.0,-999.0,71,-99.99,,,0.03,weatherlink.com 1.10,2013-01-05 22:34:00,
2013-01-05 17:49:00,29.7,22.0,30.24,South,174,0.0,-999.0,73,-99.99,,,0.03,weatherlink.com 1.10,2013-01-05 22:49:00,
2013-01-05 18:04:00,29.0,22.0,30.24,South,173,0.0,-999.0,75,-99.99,,,0.03,weatherlink.com 1.10,2013-01-05 23:04:00,
2013-01-05 18:19:00,28.1,22.0,30.25,SSE,160,0.0,-999.0,77,-99.99,,,0.03,weatherlink.com 1.10,2013-01-05 23:19:00,
2013-01-05 18:34:00,27.2,22.0,30.25,South,174,0.0,-999.0,79,-99.99,,,0.03,weatherlink.com 1.10,2013-01-05 23:34:00,
2013-01-05 18:49:00,26.7,21.0,30.25,South,174,0.0,-999.0,80,-99.99,,,0.03,weatherlink.com 1.10,2013-01-05 23:49:00,
2013-01-05 19:04:00,26.0,21.0,30.24,South,174,0.0,-999.0,81,-99.99,,,0.03,weatherlink.com 1.10,2013-01-06 00:04:00,
2013-01-05 19:19:00,26.0,22.0,30.24,South,174,0.0,-999.0,83,-99.99,,,0.03,weatherlink.com 1.10,2013-01-06 00:19:00,
2013-01-05 19:34:00,25.8,21.0,30.24,South,174,0.0,-999.0,82,-99.99,,,0.03,weatherlink.com 1.10,2013-01-06 00:34:00,
2013-01-05 19:49:00,25.3,21.0,30.24,South,174,0.0,-999.0,83,-99.99,,,0.03,weatherlink.com 1.10,2013-01-06 00:49:00,
2013-01-05 20:04:00,24.7,20.0,30.23,South,173,0.0,-999.0,83,-99.99,,,0.03,weatherlink.com 1.10,2013-01-06 01:04:00,
2013-01-05 20:19:00,23.9,20.0,30.24,South,173,0.0,-999.0,85,-99.99,,,0.03,weatherlink.com 1.10,2013-01-06 01:19:00,
2013-01-05 20:34:00,23.3,20.0,30.23,South,174,0.0,-999.0,86,-99.99,,,0.03,weatherlink.com 1.10,2013-01-06 01:34:00,
2013-01-05 20:49:00,23.2,20.0,30.24,South,174,0.0,-999.0,86,-99.99,,,0.03,weatherlink.com 1.10,2013-01-06 01:49:00,
2013-01-05 21:04:00,23.0,19.0,30.23,South,174,2.0,-999.0,86,-99.99,,,0.03,weatherlink.com 1.10,2013-01-06 02:04:00,
2013-01-05 21:19:00,22.5,19.0,30.22,South,174,0.0,-999.0,87,-99.99,,,0.03,weatherlink.com 1.10,2013-01-06 02:19:00,
2013-01-05 21:34:00,22.3,19.0,30.22,South,174,1.0,-999.0,88,-99.99,,,0.03,weatherlink.com 1.10,2013-01-06 02:34:00,
2013-01-05 21:49:00,21.7,19.0,30.21,South,173,0.0,-999.0,88,-99.99,,,0.03,weatherlink.com 1.10,2013-01-06 02:49:00,
2013-01-05 22:04:00,21.7,19.0,30.21,South,174,0.0,-999.0,90,-99.99,,,0.03,weatherlink.com 1.10,2013-01-06 03:04:00,
2013-01-05 22:19:00,21.8,19.0,30.21,South,174,0.0,-999.0,90,-99.99,,,0.03,weatherlink.com 1.10,2013-01-06 03:19:00,
2013-01-05 22:34:00,21.4,19.0,30.21,South,174,0.0,-999.0,90,-99.99,,,0.03,weatherlink.com 1.10,2013-01-06 03:34:00,
2013-01-05 22:49:00,21.5,19.0,30.20,South,174,0.0,-999.0,90,-99.99,,,0.03,weatherlink.com 1.10,2013-01-06 03:49:00,
2013-01-05 23:04:00,21.9,20.0,30.19,South,174,0.0,-999.0,91,-99.99,,,0.03,weatherlink.com 1.10,2013-01-06 04:04:00,
2013-01-05 23:19:00,22.3,20.0,30.20,South,174,0.0,-999.0,91,-99.99,,,0.03,weatherlink.com 1.10,2013-01-06 04:19:00,
2013-01-05 23:34:00,22.4,20.0,30.18,South,174,0.0,-999.0,90,-99.99,,,0.03,weatherlink.com 1.10,2013-01-06 04:34:00,
2013-01-05 23:49:00,22.6,20.0,30.18,South,174,0.0,-999.0,91,-99.99,,,0.03,weatherlink.com 1.10,2013-01-06 04:49:00,